CW0451 Weather Reports


Display with metric or nautical units.
time (UTC)temp
F
wind
direction
speed
MPH
gust
MPH
rain 1hr
in
rain 24hr
in
rain mn
in
humidity
%
barometer
mb
20260905224104 66 83 3.0 8.0 0.00 0.00 0.00 77 1010.8
20260905223103 66 92 3.0 12.0 0.00 0.00 0.00 77 1010.9
20260905222104 67 76 4.0 11.0 0.00 0.00 0.00 75 1010.8
20260905221145 68 74 8.0 15.0 0.00 0.00 0.00 73 1010.8
20260905220104 68 76 5.0 10.0 0.00 0.00 0.00 75 1010.7
20260905215146 68 89 6.0 11.0 0.00 0.00 0.00 75 1010.3
20260905214103 68 70 4.0 12.0 0.00 0.00 0.00 75 1010.2
20260905213104 69 107 5.0 15.0 0.00 0.00 0.00 74 1010.0
20260905212103 69 70 8.0 16.0 0.00 0.00 0.00 73 1009.9
20260905211104 70 101 5.0 13.0 0.00 0.00 0.00 72 1009.8
20260905210104 72 95 5.0 11.0 0.00 0.00 0.00 71 1009.7
20260905205104 71 42 6.0 10.0 0.00 0.00 0.00 72 1009.5
20260905203104 70 71 4.0 11.0 0.00 0.00 0.00 74 1009.4
20260905202124 70 63 6.0 14.0 0.00 0.00 0.00 74 1009.5
20260905201104 71 77 6.0 13.0 0.00 0.00 0.00 71 1009.3
20260905200103 72 77 5.0 14.0 0.00 0.00 0.00 73 1009.2
20260905195104 72 76 5.0 16.0 0.00 0.00 0.00 71 1009.2
20260905194103 72 81 6.0 9.0 0.00 0.00 0.00 69 1009.1
20260905193125 72 87 6.0 16.0 0.00 0.00 0.00 69 1009.1
20260905192104 73 19 8.0 14.0 0.00 0.00 0.00 71 1009.1
20260905191124 72 57 3.0 12.0 0.00 0.00 0.00 74 1009.1
20260905190104 71 29 6.0 13.0 0.00 0.00 0.00 69 1009.1
20260905185124 71 99 3.0 11.0 0.00 0.00 0.00 73 1009.3
20260905184104 71 41 7.0 14.0 0.00 0.00 0.00 70 1009.2
20260905183103 71 86 2.0 10.0 0.00 0.00 0.00 72 1009.2
20260905182104 71 58 4.0 12.0 0.00 0.00 0.00 71 1009.5
20260905181104 71 58 5.0 12.0 0.00 0.00 0.00 72 1009.4
20260905180104 71 87 3.0 7.0 0.00 0.00 0.00 73 1009.4
20260905175104 71 7 6.0 13.0 0.00 0.00 0.00 74 1009.3
20260905174124 71 48 5.0 13.0 0.00 0.00 0.00 71 1009.2
20260905173104 71 29 10.0 19.0 0.00 0.00 0.00 71 1009.0
20260905172104 72 63 3.0 14.0 0.00 0.00 0.00 71 1009.0
20260905171103 72 46 11.0 18.0 0.00 0.00 0.00 69 1009.0
20260905170104 72 31 6.0 16.0 0.00 0.00 0.00 74 1008.8
20260905165103 71 78 6.0 15.0 0.00 0.00 0.00 73 1008.7
20260905164104 71 31 7.0 15.0 0.00 0.00 0.00 72 1008.8
20260905163103 71 19 7.0 16.0 0.00 0.00 0.00 71 1008.8
20260905162104 72 67 7.0 17.0 0.00 0.00 0.00 70 1008.7
20260905161124 73 58 6.0 12.0 0.00 0.00 0.00 67 1008.5
20260905160104 73 39 6.0 16.0 0.00 0.00 0.00 69 1008.7
20260905155104 73 74 6.0 11.0 0.00 0.00 0.00 72 1008.6
20260905154103 72 29 6.0 14.0 0.00 0.00 0.00 72 1008.6
20260905153104 73 1 5.0 14.0 0.00 0.00 0.00 71 1008.6
20260905152103 74 64 6.0 15.0 0.00 0.00 0.00 68 1008.6
20260905151104 73 51 6.0 14.0 0.00 0.00 0.00 74 1008.5
20260905150104 73 78 4.0 14.0 0.00 0.00 0.00 70 1008.5
20260905145104 72 75 5.0 15.0 0.00 0.00 0.00 71 1008.5
20260905144103 72 22 4.0 11.0 0.00 0.00 0.00 74 1008.5
20260905143103 72 20 6.0 14.0 0.00 0.00 0.00 71 1008.6
20260905142103 73 21 9.0 15.0 0.00 0.00 0.00 70 1008.4
20260905141104 73 2 5.0 16.0 0.00 0.00 0.00 72 1008.5
20260905140124 72 7 5.0 16.0 0.00 0.00 0.00 73 1008.4
20260905135104 71 25 7.0 13.0 0.00 0.00 0.00 73 1008.4
20260905134103 71 9 9.0 14.0 0.00 0.00 0.00 73 1008.5
20260905132104 70 17 7.0 14.0 0.00 0.00 0.00 78 1008.6
20260905131145 69 26 6.0 12.0 0.00 0.00 0.00 78 1008.5
20260905130104 69 16 9.0 13.0 0.00 0.00 0.00 78 1008.4
20260905125103 69 356 7.0 16.0 0.00 0.00 0.00 79 1008.4
20260905124104 68 12 9.0 15.0 0.00 0.00 0.00 80 1008.3
20260905123103 67 10 9.0 15.0 0.00 0.00 0.00 80 1008.3
20260905122104 67 11 9.0 13.0 0.00 0.00 0.00 81 1008.1
20260905121103 66 359 6.0 9.0 0.00 0.00 0.00 84 1008.0
20260905120103 65 338 6.0 9.0 0.00 0.00 0.00 85 1008.1
20260905114104 64 352 4.0 8.0 0.00 0.00 0.00 87 1008.0
20260905113103 63 341 5.0 9.0 0.00 0.00 0.00 88 1007.9
20260905112104 62 350 4.0 8.0 0.00 0.00 0.00 89 1007.8
20260905111104 61 344 5.0 8.0 0.00 0.00 0.00 90 1007.8
20260905110124 61 356 4.0 8.0 0.00 0.00 0.00 90 1007.7
20260905105104 61 348 6.0 9.0 0.00 0.00 0.00 91 1007.6
20260905104104 60 341 5.0 9.0 0.00 0.00 0.00 91 1007.5
20260905103103 60 348 4.0 9.0 0.00 0.00 0.00 91 1007.4
20260905102104 61 342 5.0 8.0 0.00 0.00 0.00 90 1007.3
20260905100104 60 352 5.0 8.0 0.00 0.00 0.00 91 1007.3
20260905095125 60 351 4.0 7.0 0.00 0.01 0.00 91 1007.3
20260905094124 60 340 5.0 6.0 0.00 0.01 0.00 91 1007.3
20260905093124 61 335 4.0 8.0 0.00 0.01 0.00 91 1007.2
20260905092104 61 352 6.0 9.0 0.00 0.01 0.00 91 1007.2
20260905091124 60 350 5.0 9.0 0.00 0.01 0.00 91 1007.2
20260905090104 60 346 4.0 8.0 0.00 0.01 0.00 92 1007.2
20260905084104 60 341 4.0 8.0 0.00 0.01 0.00 93 1007.2
20260905083103 60 347 4.0 8.0 0.00 0.01 0.00 93 1007.2
20260905081124 59 349 5.0 8.0 0.00 0.01 0.00 95 1007.2
20260905075104 58 344 3.0 4.0 0.00 0.01 0.00 94 1007.2
20260905074103 58 318 2.0 3.0 0.00 0.01 0.00 94 1007.3
20260905073104 59 319 0.0 0.0 0.00 0.01 0.00 94 1007.4
20260905072103 59 319 0.0 1.0 0.00 0.01 0.00 93 1007.4
20260905071104 60 318 1.0 3.0 0.00 0.01 0.00 92 1007.3
20260905065104 60 347 4.0 7.0 0.00 0.01 0.00 94 1007.6
20260905064103 60 358 4.0 6.0 0.00 0.01 0.00 95 1007.8
20260905063104 59 325 5.0 9.0 0.00 0.01 0.00 95 1007.9
20260905062124 59 316 3.0 4.0 0.00 0.01 0.00 95 1007.8
20260905060103 59 320 1.0 2.0 0.00 0.01 0.00 95 1008.0
20260905055104 59 319 1.0 3.0 0.00 0.01 0.00 95 1008.0
20260905054104 59 314 1.0 2.0 0.00 0.01 0.00 94 1008.1
20260905053104 59 315 1.0 2.0 0.00 0.01 0.00 94 1008.1
20260905052103 59 296 1.0 3.0 0.00 0.01 0.00 95 1008.0
20260905051104 60 321 1.0 2.0 0.00 0.01 0.00 94 1008.0
20260905050103 60 308 1.0 2.0 0.00 0.01 0.00 94 1008.1
20260905045125 60 332 0.0 1.0 0.00 0.01 0.00 94 1008.2
20260905044103 60 306 0.0 3.0 0.00 0.01 0.00 94 1008.2
20260905043104 60 316 2.0 5.0 0.00 0.01 0.00 94 1008.1
20260905042103 60 325 4.0 5.0 0.00 0.01 0.00 94 1008.0
20260905041104 60 324 3.0 3.0 0.00 0.01 0.00 93 1008.1
20260905040103 61 324 1.0 2.0 0.00 0.01 0.01 93 1008.1
20260905035104 61 324 0.0 0.0 0.00 0.01 0.01 93 1008.1
20260905034103 61 325 0.0 1.0 0.00 0.01 0.01 93 1008.0
20260905033104 62 324 1.0 5.0 0.00 0.01 0.01 93 1008.0
20260905032103 62 340 2.0 4.0 0.00 0.01 0.01 93 1007.9
20260905031104 62 323 3.0 4.0 0.00 0.01 0.01 93 1008.0
20260905025125 62 341 4.0 8.0 0.00 0.01 0.01 93 1007.9
20260905024103 63 341 2.0 3.0 0.00 0.01 0.01 93 1007.8
20260905023104 63 341 1.0 4.0 0.00 0.01 0.01 92 1008.0
20260905022104 63 342 3.0 5.0 0.00 0.01 0.01 92 1007.9
20260905021103 63 337 4.0 5.0 0.00 0.01 0.01 92 1007.9
20260905020103 63 330 3.0 4.0 0.00 0.01 0.01 91 1008.0
20260905015104 64 330 3.0 3.0 0.00 0.01 0.01 91 1008.1
20260905014103 64 331 0.0 2.0 0.00 0.01 0.01 92 1008.3
20260905013104 64 330 1.0 3.0 0.00 0.01 0.01 91 1008.3
20260905012124 65 330 2.0 4.0 0.00 0.01 0.01 91 1008.3
20260905011104 65 330 2.0 3.0 0.00 0.01 0.01 90 1008.4
20260905010103 66 330 1.0 3.0 0.00 0.01 0.01 90 1008.5
20260905005104 66 324 1.0 4.0 0.00 0.01 0.01 89 1008.3
20260905004103 67 323 2.0 4.0 0.00 0.01 0.01 89 1008.3
20260905003104 67 322 2.0 5.0 0.00 0.01 0.01 87 1008.1
20260905002104 68 325 3.0 5.0 0.00 0.01 0.01 86 1008.0
20260905001104 68 328 4.0 5.0 0.00 0.01 0.01 85 1007.9
20260904235103 70 326 3.0 4.0 0.00 0.01 0.01 84 1007.7
20260904234104 71 332 2.0 4.0 0.00 0.01 0.01 81 1007.7
20260904233103 72 339 3.0 4.0 0.00 0.01 0.01 82 1007.6
20260904232104 73 326 3.0 4.0 0.00 0.01 0.01 78 1007.6
20260904231103 75 314 1.0 4.0 0.00 0.01 0.01 77 1007.4
20260904230104 77 346 2.0 3.0 0.00 0.01 0.01 72 1007.3
20260904225103 79 346 0.0 4.0 0.00 0.01 0.01 63 1007.3